| time (UTC) | temp C | wind direction | speed KPH | gust KPH | rain 1hr cm | rain 24hr cm | rain mn cm | humidity % | barometer mb |
| 20260502160225 | 6 | 57 | 0.0 | 1.6 | 0.00 | 0.03 | 0.03 | 87 | 1009.0 |
| 20260502152149 | 6 | 43 | 1.6 | 1.6 | 0.00 | 0.03 | 0.03 | 90 | 1009.0 |
| 20260502151646 | 6 | 48 | 0.0 | 1.6 | 0.00 | 0.03 | 0.03 | 92 | 1009.2 |
| 20260502151143 | 6 | 34 | 1.6 | 1.6 | 0.00 | 0.03 | 0.03 | 91 | 1009.5 |
| 20260502150641 | 6 | 55 | 1.6 | 1.6 | 0.00 | 0.03 | 0.03 | 91 | 1009.4 |
| 20260502150137 | 6 | 55 | 1.6 | 1.6 | 0.00 | 0.03 | 0.03 | 90 | 1009.2 |
| 20260502130526 | 5 | 15 | 0.0 | 0.0 | 0.00 | 0.03 | 0.03 | 99 | 1009.8 |
| 20260502123509 | 5 | 15 | 0.0 | 0.0 | 0.00 | 0.03 | 0.03 | 99 | 1009.9 |
| 20260502123005 | 5 | 15 | 0.0 | 0.0 | 0.00 | 0.03 | 0.03 | 99 | 1010.1 |
| 20260502122502 | 5 | 15 | 0.0 | 0.0 | 0.00 | 0.03 | 0.03 | 99 | 1009.9 |
| 20260502121959 | 5 | 15 | 0.0 | 0.0 | 0.00 | 0.03 | 0.03 | 99 | 1010.1 |
| 20260502121456 | 4 | 15 | 0.0 | 0.0 | 0.00 | 0.03 | 0.03 | 99 | 1010.1 |
| 20260502120954 | 4 | 15 | 0.0 | 0.0 | 0.00 | 0.03 | 0.03 | 99 | 1010.0 |
| 20260502120450 | 4 | 15 | 0.0 | 3.2 | 0.00 | 0.03 | 0.03 | 99 | 1010.1 |
| 20260502115445 | 4 | 15 | 0.0 | 1.6 | 0.00 | 0.03 | 0.03 | 99 | 1010.0 |
| 20260502114940 | 4 | 15 | 0.0 | 0.0 | 0.00 | 0.03 | 0.03 | 99 | 1010.1 |
| 20260502114437 | 4 | 15 | 0.0 | 0.0 | 0.00 | 0.03 | 0.03 | 99 | 1009.9 |
| 20260502113935 | 4 | 15 | 0.0 | 0.0 | 0.00 | 0.03 | 0.03 | 99 | 1010.2 |
| 20260502113432 | 4 | 15 | 0.0 | 0.0 | 0.00 | 0.03 | 0.03 | 99 | 1010.0 |
| 20260502112931 | 4 | 15 | 0.0 | 0.0 | 0.00 | 0.03 | 0.03 | 99 | 1010.1 |
| 20260502112428 | 4 | 15 | 0.0 | 0.0 | 0.00 | 0.03 | 0.03 | 99 | 1010.2 |
| 20260502111925 | 4 | 15 | 0.0 | 0.0 | 0.00 | 0.03 | 0.03 | 99 | 1010.1 |
| 20260502111422 | 4 | 15 | 0.0 | 0.0 | 0.00 | 0.03 | 0.03 | 99 | 1010.1 |
| 20260502110919 | 4 | 15 | 0.0 | 0.0 | 0.18 | 0.03 | 0.03 | 99 | 1010.1 |
| 20260502110417 | 4 | 15 | 0.0 | 0.0 | 0.18 | 0.03 | 0.03 | 98 | 1010.2 |
| 20260502105914 | 4 | 15 | 0.0 | 0.0 | 0.00 | 0.00 | 0.00 | 97 | 1010.1 |
| 20260502105412 | 3 | 15 | 0.0 | 1.6 | 0.00 | 0.00 | 0.00 | 96 | 1010.1 |
| 20260502104910 | 3 | 15 | 0.0 | 0.0 | 0.00 | 0.00 | 0.00 | 96 | 1010.3 |
| 20260502104406 | 3 | 14 | 0.0 | 1.6 | 0.00 | 0.00 | 0.00 | 96 | 1010.1 |
| 20260502103904 | 3 | 15 | 0.0 | 0.0 | 0.00 | 0.00 | 0.00 | 97 | 1010.1 |
| 20260502103401 | 3 | 14 | 0.0 | 1.6 | 0.00 | 0.00 | 0.00 | 95 | 1010.0 |
| 20260502102858 | 3 | 14 | 0.0 | 1.6 | 0.00 | 0.00 | 0.00 | 94 | 1010.0 |
| 20260502102355 | 3 | 15 | 0.0 | 1.6 | 0.00 | 0.00 | 0.00 | 95 | 1010.0 |
| 20260502101852 | 3 | 15 | 0.0 | 1.6 | 0.00 | 0.00 | 0.00 | 94 | 1009.8 |
| 20260502101350 | 3 | 15 | 0.0 | 0.0 | 0.00 | 0.00 | 0.00 | 95 | 1009.7 |
| 20260502100848 | 3 | 15 | 0.0 | 1.6 | 0.00 | 0.00 | 0.00 | 95 | 1009.7 |
| 20260502100347 | 3 | 14 | 1.6 | 1.6 | 0.00 | 0.00 | 0.00 | 96 | 1009.9 |
| 20260502091321 | 2 | 15 | 0.0 | 1.6 | 0.00 | 0.00 | 0.00 | 96 | 1008.9 |
| 20260502090819 | 2 | 15 | 0.0 | 0.0 | 0.00 | 0.00 | 0.00 | 96 | 1008.7 |
| 20260502090315 | 2 | 15 | 0.0 | 0.0 | 0.00 | 0.00 | 0.00 | 96 | 1009.0 |
| 20260502071205 | 3 | 28 | 1.6 | 4.8 | 0.00 | 0.00 | 0.00 | 87 | 1009.7 |
| 20260502070703 | 3 | 46 | 1.6 | 1.6 | 0.00 | 0.00 | 0.00 | 86 | 1009.9 |
| 20260502070200 | 3 | 46 | 1.6 | 1.6 | 0.00 | 0.00 | 0.00 | 89 | 1009.9 |
| 20260502065659 | 2 | 36 | 1.6 | 1.6 | 0.00 | 0.00 | 0.00 | 89 | 1009.8 |
| 20260502065156 | 2 | 26 | 0.0 | 3.2 | 0.00 | 0.00 | 0.00 | 91 | 1009.7 |
| 20260502064655 | 2 | 39 | 1.6 | 1.6 | 0.00 | 0.00 | 0.00 | 90 | 1009.6 |
| 20260502064151 | 2 | 39 | 1.6 | 1.6 | 0.00 | 0.00 | 0.00 | 91 | 1009.4 |
| 20260502063649 | 2 | 39 | 0.0 | 1.6 | 0.00 | 0.00 | 0.00 | 90 | 1009.3 |
| 20260502063147 | 2 | 39 | 0.0 | 0.0 | 0.00 | 0.00 | 0.00 | 91 | 1009.1 |
| 20260502062644 | 2 | 39 | 1.6 | 1.6 | 0.00 | 0.00 | 0.00 | 90 | 1009.1 |
| 20260502062141 | 2 | 39 | 0.0 | 1.6 | 0.00 | 0.00 | 0.00 | 90 | 1008.9 |
| 20260502061639 | 1 | 39 | 1.6 | 1.6 | 0.00 | 0.00 | 0.00 | 92 | 1009.1 |
| 20260502061137 | 1 | 39 | 1.6 | 1.6 | 0.00 | 0.00 | 0.00 | 92 | 1008.8 |
| 20260502060636 | 1 | 39 | 1.6 | 1.6 | 0.00 | 0.00 | 0.00 | 93 | 1009.0 |
| 20260502060133 | 1 | 39 | 0.0 | 0.0 | 0.00 | 0.00 | 0.00 | 92 | 1008.8 |
| 20260502055631 | 1 | 39 | 0.0 | 0.0 | 0.00 | 0.00 | 0.00 | 93 | 1008.7 |
| 20260502055129 | 1 | 39 | 0.0 | 0.0 | 0.00 | 0.00 | 0.00 | 93 | 1008.8 |
| 20260502054628 | 1 | 39 | 0.0 | 0.0 | 0.00 | 0.00 | 0.00 | 93 | 1008.6 |
| 20260502054125 | 1 | 39 | 0.0 | 0.0 | 0.00 | 0.00 | 0.00 | 92 | 1008.7 |
| 20260502053622 | 1 | 39 | 0.0 | 0.0 | 0.00 | 0.00 | 0.00 | 93 | 1009.0 |
| 20260502053119 | 1 | 39 | 0.0 | 0.0 | 0.00 | 0.00 | 0.00 | 94 | 1008.6 |
| 20260502052617 | 1 | 39 | 0.0 | 1.6 | 0.00 | 0.00 | 0.00 | 94 | 1008.5 |
| 20260502052115 | 1 | 39 | 1.6 | 1.6 | 0.00 | 0.00 | 0.00 | 93 | 1008.8 |
| 20260502051613 | 0 | 39 | 0.0 | 1.6 | 0.00 | 0.00 | 0.00 | 94 | 1008.7 |
| 20260502051111 | 0 | 39 | 0.0 | 0.0 | 0.00 | 0.00 | 0.00 | 94 | 1008.8 |
| 20260502050607 | 0 | 39 | 0.0 | 0.0 | 0.00 | 0.00 | 0.00 | 93 | 1008.7 |
| 20260502050104 | 0 | 39 | 0.0 | 0.0 | 0.00 | 0.00 | 0.00 | 95 | 1008.8 |
| 20260502045600 | 0 | 39 | 0.0 | 0.0 | 0.00 | 0.00 | 0.00 | 95 | 1008.9 |
| 20260502045058 | 0 | 39 | 0.0 | 0.0 | 0.00 | 0.00 | 0.00 | 95 | 1008.9 |
| 20260502044554 | 0 | 39 | 0.0 | 1.6 | 0.00 | 0.00 | 0.00 | 95 | 1009.0 |
| 20260502044051 | 0 | 39 | 0.0 | 1.6 | 0.00 | 0.00 | 0.00 | 95 | 1008.6 |
| 20260502043548 | 0 | 39 | 1.6 | 1.6 | 0.00 | 0.00 | 0.00 | 94 | 1008.8 |
| 20260502043044 | 0 | 39 | 0.0 | 0.0 | 0.00 | 0.00 | 0.00 | 93 | 1008.8 |
| 20260502042539 | 0 | 39 | 1.6 | 1.6 | 0.00 | 0.00 | 0.00 | 93 | 1008.6 |
| 20260502042037 | 0 | 39 | 0.0 | 1.6 | 0.00 | 0.00 | 0.00 | 93 | 1008.6 |
| 20260502041535 | 0 | 39 | 0.0 | 0.0 | 0.00 | 0.00 | 0.00 | 92 | 1008.6 |
| 20260502041031 | 0 | 39 | 0.0 | 1.6 | 0.00 | 0.00 | 0.00 | 91 | 1008.7 |
| 20260502040528 | 0 | 39 | 0.0 | 0.0 | 0.00 | 0.00 | 0.00 | 90 | 1008.5 |
| 20260502040025 | 0 | 39 | 0.0 | 0.0 | 0.00 | 0.00 | 0.00 | 91 | 1008.6 |
| 20260502035521 | 0 | 39 | 0.0 | 0.0 | 0.00 | 0.00 | 0.00 | 92 | 1008.7 |
| 20260502035019 | 0 | 39 | 1.6 | 1.6 | 0.00 | 0.00 | 0.00 | 91 | 1008.6 |
| 20260502034516 | 1 | 39 | 0.0 | 0.0 | 0.00 | 0.00 | 0.00 | 90 | 1008.4 |
| 20260502034015 | 1 | 39 | 0.0 | 0.0 | 0.00 | 0.00 | 0.00 | 89 | 1008.4 |
| 20260502033513 | 1 | 39 | 0.0 | 0.0 | 0.00 | 0.00 | 0.00 | 89 | 1008.5 |
| 20260502033010 | 1 | 39 | 0.0 | 0.0 | 0.00 | 0.00 | 0.00 | 89 | 1008.5 |
| 20260502032505 | 1 | 39 | 0.0 | 0.0 | 0.00 | 0.00 | 0.00 | 89 | 1008.4 |
| 20260502032003 | 1 | 39 | 0.0 | 1.6 | 0.00 | 0.00 | 0.00 | 89 | 1008.4 |
| 20260502031500 | 1 | 39 | 1.6 | 1.6 | 0.00 | 0.00 | 0.00 | 88 | 1008.3 |
| 20260502030958 | 1 | 39 | 0.0 | 1.6 | 0.00 | 0.00 | 0.00 | 86 | 1008.4 |
| 20260502030456 | 1 | 39 | 0.0 | 0.0 | 0.00 | 0.00 | 0.00 | 87 | 1008.4 |
| 20260502025954 | 1 | 39 | 0.0 | 1.6 | 0.00 | 0.00 | 0.00 | 85 | 1008.4 |
| 20260502025451 | 2 | 39 | 0.0 | 1.6 | 0.00 | 0.00 | 0.00 | 85 | 1008.3 |
| 20260502024949 | 2 | 39 | 1.6 | 1.6 | 0.00 | 0.00 | 0.00 | 84 | 1008.5 |
| 20260502024447 | 2 | 39 | 0.0 | 0.0 | 0.00 | 0.00 | 0.00 | 84 | 1008.2 |
| 20260502023945 | 2 | 39 | 0.0 | 0.0 | 0.00 | 0.00 | 0.00 | 83 | 1008.4 |
| 20260502023442 | 2 | 39 | 0.0 | 0.0 | 0.00 | 0.00 | 0.00 | 84 | 1008.4 |
| 20260502022939 | 2 | 40 | 0.0 | 0.0 | 0.00 | 0.00 | 0.00 | 83 | 1008.3 |
| 20260502022435 | 2 | 40 | 0.0 | 0.0 | 0.00 | 0.00 | 0.00 | 84 | 1008.2 |
| 20260502021932 | 2 | 39 | 0.0 | 0.0 | 0.00 | 0.00 | 0.00 | 83 | 1008.3 |
| 20260502021430 | 2 | 39 | 0.0 | 0.0 | 0.00 | 0.00 | 0.00 | 83 | 1008.3 |
| 20260502020927 | 2 | 39 | 0.0 | 1.6 | 0.00 | 0.00 | 0.00 | 82 | 1008.4 |
| 20260502020425 | 3 | 39 | 0.0 | 1.6 | 0.00 | 0.00 | 0.00 | 82 | 1008.3 |
| 20260502015921 | 3 | 39 | 0.0 | 1.6 | 0.00 | 0.00 | 0.00 | 80 | 1008.2 |
| 20260502015419 | 3 | 39 | 0.0 | 0.0 | 0.00 | 0.00 | 0.00 | 78 | 1008.3 |
| 20260502014915 | 3 | 39 | 0.0 | 0.0 | 0.00 | 0.00 | 0.00 | 80 | 1008.4 |
| 20260502014412 | 3 | 39 | 0.0 | 0.0 | 0.00 | 0.00 | 0.00 | 76 | 1008.3 |
| 20260502013909 | 3 | 39 | 0.0 | 0.0 | 0.00 | 0.00 | 0.00 | 76 | 1008.3 |
| 20260502013404 | 4 | 39 | 0.0 | 0.0 | 0.00 | 0.00 | 0.00 | 76 | 1008.3 |
| 20260502012901 | 4 | 39 | 0.0 | 1.6 | 0.00 | 0.00 | 0.00 | 72 | 1008.1 |
| 20260502012359 | 5 | 39 | 0.0 | 1.6 | 0.00 | 0.00 | 0.00 | 71 | 1008.2 |
| 20260502011856 | 5 | 39 | 0.0 | 0.0 | 0.00 | 0.00 | 0.00 | 69 | 1008.2 |
| 20260502011352 | 5 | 39 | 0.0 | 1.6 | 0.00 | 0.00 | 0.00 | 71 | 1008.1 |
| 20260502010849 | 5 | 39 | 0.0 | 1.6 | 0.00 | 0.00 | 0.00 | 70 | 1008.1 |
| 20260502010346 | 5 | 39 | 1.6 | 1.6 | 0.00 | 0.00 | 0.00 | 72 | 1008.0 |
| 20260502005843 | 5 | 39 | 0.0 | 0.0 | 0.00 | 0.00 | 0.00 | 64 | 1008.0 |
| 20260502005341 | 6 | 39 | 0.0 | 0.0 | 0.00 | 0.00 | 0.00 | 64 | 1007.9 |
| 20260502004838 | 6 | 39 | 0.0 | 0.0 | 0.00 | 0.00 | 0.00 | 63 | 1007.7 |
| 20260502004334 | 6 | 39 | 1.6 | 1.6 | 0.00 | 0.00 | 0.00 | 62 | 1007.5 |
| 20260502003832 | 7 | 40 | 0.0 | 0.0 | 0.00 | 0.00 | 0.00 | 58 | 1007.6 |
| 20260502003328 | 7 | 40 | 0.0 | 0.0 | 0.00 | 0.00 | 0.00 | 54 | 1007.5 |
| 20260502002825 | 7 | 40 | 0.0 | 0.0 | 0.00 | 0.00 | 0.00 | 54 | 1007.3 |
| 20260502002322 | 8 | 40 | 0.0 | 0.0 | 0.00 | 0.00 | 0.00 | 59 | 1007.3 |
| 20260502001819 | 8 | 40 | 0.0 | 0.0 | 0.00 | 0.00 | 0.00 | 57 | 1007.2 |
| 20260502001317 | 8 | 40 | 0.0 | 0.0 | 0.00 | 0.00 | 0.00 | 58 | 1007.0 |
| 20260502000814 | 9 | 40 | 0.0 | 0.0 | 0.00 | 0.00 | 0.00 | 57 | 1007.0 |
| 20260502000312 | 9 | 40 | 0.0 | 1.6 | 0.00 | 0.00 | 0.00 | 48 | 1006.8 |
| 20260501235808 | 10 | 40 | 1.6 | 1.6 | 0.00 | 0.00 | 0.00 | 48 | 1007.1 |
| 20260501235305 | 10 | 40 | 0.0 | 0.0 | 0.00 | 0.00 | 0.00 | 48 | 1007.1 |
| 20260501234759 | 10 | 40 | 1.6 | 1.6 | 0.00 | 0.00 | 0.00 | 42 | 1006.9 |
| 20260501234257 | 10 | 42 | 0.0 | 3.2 | 0.00 | 0.00 | 0.00 | 44 | 1006.8 |
| 20260501233755 | 10 | 29 | 3.2 | 3.2 | 0.00 | 0.00 | 0.00 | 43 | 1006.7 |
| 20260501233252 | 10 | 37 | 1.6 | 1.6 | 0.00 | 0.00 | 0.00 | 42 | 1006.7 |
| 20260501232747 | 11 | 36 | 0.0 | 0.0 | 0.00 | 0.00 | 0.00 | 43 | 1006.6 |
| 20260501232245 | 11 | 36 | 0.0 | 1.6 | 0.00 | 0.00 | 0.00 | 41 | 1006.4 |
| 20260501231743 | 11 | 36 | 0.0 | 1.6 | 0.00 | 0.00 | 0.00 | 41 | 1006.5 |
| 20260501231241 | 11 | 36 | 1.6 | 1.6 | 0.00 | 0.00 | 0.00 | 39 | 1006.3 |
| 20260501230739 | 11 | 12 | 1.6 | 3.2 | 0.00 | 0.00 | 0.00 | 39 | 1006.0 |
| 20260501230237 | 11 | 27 | 1.6 | 11.3 | 0.00 | 0.00 | 0.00 | 39 | 1006.1 |
| 20260501225734 | 12 | 32 | 1.6 | 3.2 | 0.00 | 0.00 | 0.00 | 37 | 1006.2 |
| 20260501225231 | 12 | 36 | 1.6 | 3.2 | 0.00 | 0.00 | 0.00 | 37 | 1006.2 |
| 20260501224727 | 12 | 347 | 4.8 | 8.0 | 0.00 | 0.00 | 0.00 | 38 | 1006.1 |
| 20260501224226 | 12 | 16 | 0.0 | 3.2 | 0.00 | 0.00 | 0.00 | 38 | 1006.0 |
| 20260501223721 | 12 | 17 | 1.6 | 3.2 | 0.00 | 0.00 | 0.00 | 37 | 1006.2 |
| 20260501223218 | 12 | 2 | 3.2 | 8.0 | 0.00 | 0.00 | 0.00 | 37 | 1005.9 |
| 20260501222714 | 12 | 20 | 1.6 | 3.2 | 0.00 | 0.00 | 0.00 | 37 | 1006.1 |
| 20260501222211 | 12 | 34 | 3.2 | 9.7 | 0.00 | 0.00 | 0.00 | 35 | 1005.9 |
| 20260501221708 | 12 | 41 | 1.6 | 4.8 | 0.00 | 0.00 | 0.00 | 35 | 1005.8 |
| 20260501221205 | 13 | 12 | 0.0 | 3.2 | 0.00 | 0.00 | 0.00 | 35 | 1005.9 |
| 20260501220703 | 13 | 11 | 3.2 | 4.8 | 0.00 | 0.00 | 0.00 | 34 | 1005.8 |
| 20260501220200 | 12 | 24 | 4.8 | 14.5 | 0.00 | 0.00 | 0.00 | 35 | 1005.8 |
| 20260501215657 | 12 | 17 | 1.6 | 8.0 | 0.00 | 0.00 | 0.00 | 33 | 1005.7 |
| 20260501215152 | 13 | 332 | 8.0 | 11.3 | 0.00 | 0.00 | 0.00 | 35 | 1005.7 |
| 20260501214647 | 13 | 50 | 1.6 | 3.2 | 0.00 | 0.00 | 0.00 | 35 | 1005.5 |
| 20260501214142 | 13 | 35 | 6.4 | 9.7 | 0.00 | 0.00 | 0.00 | 33 | 1005.4 |
| 20260501213640 | 13 | 43 | 1.6 | 4.8 | 0.00 | 0.00 | 0.00 | 33 | 1005.5 |
| 20260501213135 | 13 | 20 | 4.8 | 4.8 | 0.00 | 0.00 | 0.00 | 36 | 1005.4 |
| 20260501212633 | 13 | 81 | 3.2 | 8.0 | 0.00 | 0.00 | 0.00 | 33 | 1005.5 |
| 20260501212129 | 13 | 19 | 3.2 | 8.0 | 0.00 | 0.00 | 0.00 | 35 | 1005.3 |
| 20260501211626 | 13 | 13 | 3.2 | 4.8 | 0.00 | 0.00 | 0.00 | 34 | 1005.3 |
| 20260501211124 | 13 | 65 | 9.7 | 12.9 | 0.00 | 0.00 | 0.00 | 34 | 1005.4 |
| 20260501210620 | 13 | 56 | 6.4 | 9.7 | 0.00 | 0.00 | 0.00 | 34 | 1005.1 |
| 20260501210117 | 13 | 358 | 4.8 | 11.3 | 0.00 | 0.00 | 0.00 | 38 | 1005.4 |
| 20260501205613 | 13 | 30 | 1.6 | 3.2 | 0.00 | 0.00 | 0.00 | 36 | 1005.2 |
| 20260501205111 | 14 | 21 | 4.8 | 11.3 | 0.00 | 0.00 | 0.00 | 36 | 1005.2 |
| 20260501204607 | 15 | 324 | 6.4 | 8.0 | 0.00 | 0.00 | 0.00 | 35 | 1005.1 |
| 20260501204103 | 15 | 335 | 3.2 | 4.8 | 0.00 | 0.00 | 0.00 | 34 | 1005.2 |
| 20260501203600 | 13 | 48 | 1.6 | 3.2 | 0.00 | 0.00 | 0.00 | 36 | 1005.0 |
| 20260501203058 | 13 | 19 | 4.8 | 8.0 | 0.00 | 0.00 | 0.00 | 35 | 1005.2 |
| 20260501202554 | 14 | 93 | 6.4 | 8.0 | 0.00 | 0.00 | 0.00 | 33 | 1005.3 |
| 20260501202051 | 14 | 32 | 1.6 | 14.5 | 0.00 | 0.00 | 0.00 | 36 | 1005.1 |
| 20260501201548 | 15 | 341 | 3.2 | 4.8 | 0.00 | 0.00 | 0.00 | 36 | 1005.3 |
| 20260501201044 | 14 | 17 | 3.2 | 8.0 | 0.00 | 0.00 | 0.00 | 35 | 1005.3 |
| 20260501200541 | 14 | 349 | 9.7 | 14.5 | 0.00 | 0.00 | 0.00 | 34 | 1005.1 |
| 20260501200039 | 15 | 59 | 1.6 | 8.0 | 0.00 | 0.00 | 0.00 | 36 | 1005.3 |
| 20260501195536 | 15 | 11 | 3.2 | 12.9 | 0.00 | 0.00 | 0.00 | 37 | 1005.0 |
| 20260501195031 | 15 | 247 | 8.0 | 12.9 | 0.00 | 0.00 | 0.00 | 35 | 1005.1 |
| 20260501194527 | 14 | 325 | 4.8 | 12.9 | 0.00 | 0.00 | 0.00 | 38 | 1005.1 |
| 20260501194023 | 15 | 83 | 6.4 | 14.5 | 0.00 | 0.00 | 0.00 | 36 | 1004.9 |
| 20260501193521 | 15 | 15 | 1.6 | 4.8 | 0.00 | 0.00 | 0.00 | 37 | 1005.1 |
| 20260501193020 | 15 | 351 | 8.0 | 24.1 | 0.00 | 0.00 | 0.00 | 36 | 1005.0 |
| 20260501192516 | 14 | 35 | 3.2 | 11.3 | 0.00 | 0.00 | 0.00 | 37 | 1004.9 |
| 20260501192014 | 14 | 19 | 8.0 | 14.5 | 0.00 | 0.00 | 0.00 | 36 | 1004.9 |
| 20260501191510 | 15 | 228 | 6.4 | 17.7 | 0.00 | 0.00 | 0.00 | 36 | 1005.0 |
| 20260501191008 | 15 | 36 | 1.6 | 4.8 | 0.00 | 0.00 | 0.00 | 37 | 1004.8 |
| 20260501190503 | 15 | 226 | 8.0 | 12.9 | 0.00 | 0.00 | 0.00 | 37 | 1004.8 |
| 20260501185959 | 15 | 26 | 3.2 | 4.8 | 0.00 | 0.00 | 0.00 | 41 | 1004.8 |
| 20260501185455 | 14 | 33 | 6.4 | 9.7 | 0.00 | 0.00 | 0.00 | 37 | 1004.8 |
| 20260501184951 | 14 | 79 | 3.2 | 9.7 | 0.00 | 0.00 | 0.00 | 40 | 1004.9 |
| 20260501184448 | 15 | 34 | 3.2 | 17.7 | 0.00 | 0.00 | 0.00 | 39 | 1004.9 |
| 20260501183942 | 15 | 336 | 4.8 | 8.0 | 0.00 | 0.00 | 0.00 | 42 | 1004.6 |
| 20260501183440 | 14 | 145 | 3.2 | 9.7 | 0.00 | 0.00 | 0.00 | 41 | 1004.7 |
| 20260501182936 | 13 | 120 | 6.4 | 11.3 | 0.00 | 0.00 | 0.00 | 41 | 1005.0 |
| 20260501182433 | 14 | 19 | 6.4 | 9.7 | 0.00 | 0.00 | 0.00 | 42 | 1004.7 |
| 20260501181930 | 14 | 26 | 1.6 | 12.9 | 0.00 | 0.00 | 0.00 | 40 | 1004.7 |
| 20260501181427 | 13 | 32 | 1.6 | 8.0 | 0.00 | 0.00 | 0.00 | 42 | 1004.8 |
| 20260501180924 | 13 | 266 | 4.8 | 8.0 | 0.00 | 0.00 | 0.00 | 41 | 1004.9 |
| 20260501180421 | 13 | 325 | 4.8 | 8.0 | 0.00 | 0.00 | 0.00 | 43 | 1004.6 |
| 20260501175917 | 13 | 25 | 1.6 | 11.3 | 0.00 | 0.00 | 0.00 | 42 | 1005.0 |
| 20260501175415 | 13 | 34 | 4.8 | 12.9 | 0.00 | 0.00 | 0.00 | 43 | 1004.6 |
| 20260501174911 | 13 | 53 | 3.2 | 3.2 | 0.00 | 0.00 | 0.00 | 44 | 1004.8 |
| 20260501174409 | 13 | 270 | 6.4 | 9.7 | 0.00 | 0.00 | 0.00 | 43 | 1004.7 |
| 20260501173906 | 13 | 357 | 3.2 | 8.0 | 0.00 | 0.00 | 0.00 | 44 | 1004.7 |
| 20260501173404 | 13 | 59 | 9.7 | 12.9 | 0.00 | 0.00 | 0.00 | 45 | 1004.6 |
| 20260501172859 | 13 | 0 | 4.8 | 4.8 | 0.00 | 0.00 | 0.00 | 48 | 1004.8 |
| 20260501172354 | 13 | 19 | 6.4 | 9.7 | 0.00 | 0.00 | 0.00 | 46 | 1004.8 |
| 20260501171850 | 12 | 304 | 4.8 | 4.8 | 0.00 | 0.00 | 0.00 | 49 | 1004.8 |
| 20260501171347 | 13 | 332 | 8.0 | 11.3 | 0.00 | 0.00 | 0.00 | 47 | 1004.8 |
| 20260501170843 | 13 | 9 | 4.8 | 4.8 | 0.00 | 0.00 | 0.00 | 51 | 1004.8 |
| 20260501170340 | 12 | 359 | 3.2 | 12.9 | 0.00 | 0.00 | 0.00 | 52 | 1004.7 |
| 20260501165838 | 12 | 26 | 3.2 | 4.8 | 0.00 | 0.00 | 0.00 | 49 | 1004.8 |
| 20260501165336 | 12 | 346 | 3.2 | 3.2 | 0.00 | 0.00 | 0.00 | 52 | 1004.8 |
| 20260501164833 | 12 | 57 | 1.6 | 8.0 | 0.00 | 0.00 | 0.00 | 52 | 1004.9 |
| 20260501164331 | 12 | 17 | 3.2 | 8.0 | 0.00 | 0.00 | 0.00 | 50 | 1005.0 |
| 20260501163827 | 12 | 20 | 1.6 | 4.8 | 0.00 | 0.00 | 0.00 | 50 | 1004.8 |
| 20260501163324 | 12 | 37 | 0.0 | 8.0 | 0.00 | 0.00 | 0.00 | 53 | 1004.9 |
| 20260501162821 | 12 | 18 | 3.2 | 4.8 | 0.00 | 0.00 | 0.00 | 53 | 1004.9 |
| 20260501162317 | 12 | 26 | 3.2 | 3.2 | 0.00 | 0.00 | 0.00 | 52 | 1005.1 |
| 20260501161814 | 12 | 30 | 4.8 | 8.0 | 0.00 | 0.00 | 0.00 | 52 | 1005.0 |
| 20260501161311 | 12 | 16 | 1.6 | 8.0 | 0.00 | 0.00 | 0.00 | 53 | 1005.1 |
| 20260501160808 | 12 | 343 | 4.8 | 8.0 | 0.00 | 0.00 | 0.00 | 54 | 1005.3 |